This demonstration page uses our WeatherBlox Daily Observations layout. Learn more.

Left ArrowRight Arrow

44.8408, -93.29828

Hourly Observations for August 21, 2019

Temp ( °F °C ) Dew Point ( °F °C ) Humidity (%) Winds ( mph kmh ) Pressure ( in mb ) Visibility ( mi km ) Precip ( " mm )
12:53 am 00:53 Mostly Clear 70 21.1 61 16.1 73 73 N 10 17 30.03 1017 10 16 0.00 0.00
1:53 am 01:53 Clear 68 20 60 15.6 76 76 N 9 15 30.04 1017 10 16 0.00 0.00
2:53 am 02:53 Mostly Clear 66 18.9 58 14.4 75 75 N 9 15 30.04 1017 10 16 0.00 0.00
3:53 am 03:53 Mostly Clear 65 18.3 57 13.9 76 76 N 9 15 30.01 1016 10 16 0.00 0.00
4:53 am 04:53 Clear 63 17.2 56 13.3 78 78 NNE 7 11 29.98 1015 10 16 0.00 0.00
5:53 am 05:53 Clear 61 16.1 55 12.8 81 81 NW 5 7 30.04 1017 10 16 0.00 0.00
6:53 am 06:53 Mostly Sunny 61 16.1 56 13.3 84 84 NNW 6 9 30.06 1018 10 16 0.00 0.00
7:53 am 07:53 Mostly Cloudy 64 17.8 56 13.3 75 75 NW 5 7 30.06 1018 10 16 0.00 0.00
8:53 am 08:53 Mostly Cloudy 67 19.4 56 13.3 68 68 NW 3 6 30.07 1018 10 16 0.00 0.00
9:53 am 09:53 Mostly Cloudy 70 21.1 55 12.8 59 59 WNW 6 9 30.07 1018 10 16 0.00 0.00
10:53 am 10:53 Mostly Cloudy 73 22.8 52 11.1 48 48 N 9 15 30.06 1018 10 16 0.00 0.00
12:53 pm 12:53 Mostly Cloudy 74 23.3 52 11.1 46 46 NW 12 19 30.05 1018 10 16 0.00 0.00
1:53 pm 13:53 Mostly Cloudy 75 23.9 52 11.1 45 45 NW 9 15 30.05 1018 10 16 0.00 0.00
2:53 pm 14:53 Mostly Cloudy 76 24.4 52 11.1 43 43 WNW 6 9 30.04 1017 10 16 0.00 0.00
3:53 pm 15:53 Mostly Cloudy 75 23.9 54 12.2 48 48 NW 8 13 30.03 1017 10 16 0.00 0.00
4:53 pm 16:53 Mostly Cloudy 76 24.4 53 11.7 45 45 WNW 13 20 30.02 1017 10 16 0.00 0.00
5:53 pm 17:53 Mostly Cloudy 76 24.4 52 11.1 43 43 NNW 12 19 30.02 1017 10 16 0.00 0.00
6:53 pm 18:53 Mostly Cloudy 74 23.3 51 10.6 45 45 NW 12 19 30.00 1016 10 16 0.00 0.00
7:53 pm 19:53 Mostly Cloudy 72 22.2 50 10 46 46 NNW 7 11 30.00 1016 10 16 0.00 0.00
8:53 pm 20:53 Mostly Cloudy 70 21.1 51 10.6 51 51 VRB 5 7 30.01 1016 10 16 0.00 0.00
9:53 pm 21:53 Mostly Cloudy 68 20 52 11.1 57 57 N 3 6 30.03 1017 10 16 0.00 0.00
10:53 pm 22:53 Mostly Clear 67 19.4 52 11.1 59 59 N 5 7 30.04 1017 10 16 0.00 0.00
11:53 pm 23:53 Mostly Clear 65 18.3 52 11.1 63 63 N 3 6 30.05 1018 10 16 0.00 0.00

Powered by AerisWeather